Location: Newark
(55.2875°N, 3.1864°W)
Time: 01:20:13
(UTC+00:00)

ISS - Pass Details

Date: 03 February 2020
Orbit: 415 x 422 km, 51.6° (Epoch: 26 February)

Event Time Altitude Azimuth Distance (km) Brightness Sun altitude
Rises 19:04:25 0° 274° (W) 2,382 1.7 -18.9°
Reaches altitude 10° 19:06:50 10° 258° (WSW) 1,513 0.3 -19.2°
Maximum altitude 19:09:28 21° 208° (SSW) 1,008 -1.6 -19.6°
Enters shadow 19:10:49 17° 175° (S) 1,158 -1.6 -19.8°
